![]() |
EMODnet Physics ERDDAP
Easier access to scientific data |
log in|
Brought to you by EMODnet Physics |
| Dataset Title: | NDBC - Collection of dew point temperature (DEWT) TimeSeries - IN SITU MultiPointTimeSeriesObservation
|
| Institution: | NDBC (Dataset ID: TS_DEWT_NDBC) |
| Information: | Summary
| License
| FGDC
| ISO 19115
| Metadata
| Background
| Subset
| Data Access Form
| Make a graph
|
| Name | Last modified | Size | Description | |
|---|---|---|---|---|
| Parent Directory | - | - | ||
| 46005_TS_DEWT_011977.nc | 06-Dec-2024 13:14 | 599614 | ||
| 46005_TS_DEWT_011978.nc | 06-Dec-2024 13:14 | 599617 | ||
| 46005_TS_DEWT_011979.nc | 06-Dec-2024 13:16 | 426333 | ||
| 46005_TS_DEWT_011980.nc | 06-Dec-2024 13:18 | 1115313 | ||
| 46005_TS_DEWT_011981.nc | 06-Dec-2024 13:20 | 1120608 | ||
| 46005_TS_DEWT_011982.nc | 06-Dec-2024 13:22 | 1105898 | ||
| 46005_TS_DEWT_011983.nc | 06-Dec-2024 13:24 | 1022239 | ||
| 46005_TS_DEWT_011984.nc | 06-Dec-2024 13:26 | 4583035 | ||
| 46005_TS_DEWT_011985.nc | 06-Dec-2024 13:28 | 3422065 | ||
| 46005_TS_DEWT_011987.nc | 06-Dec-2024 13:31 | 1028555 | ||
| 46005_TS_DEWT_011988.nc | 06-Dec-2024 13:33 | 1024210 | ||
| 46005_TS_DEWT_011989.nc | 06-Dec-2024 13:36 | 1024101 | ||
| 46005_TS_DEWT_011990.nc | 06-Dec-2024 13:38 | 423673 | ||
| 46005_TS_DEWT_011991.nc | 06-Dec-2024 13:39 | 3190842 | ||
| 46005_TS_DEWT_011992.nc | 06-Dec-2024 13:41 | 4653669 | ||
| 46005_TS_DEWT_011993.nc | 06-Dec-2024 13:43 | 994973 | ||
| 46005_TS_DEWT_011994.nc | 06-Dec-2024 13:44 | 1262435 | ||
| 46005_TS_DEWT_011995.nc | 06-Dec-2024 13:46 | 1265250 | ||
| 46005_TS_DEWT_011996.nc | 06-Dec-2024 13:48 | 4439319 | ||
| 46005_TS_DEWT_011997.nc | 06-Dec-2024 13:51 | 3313483 | ||
| 46005_TS_DEWT_011998.nc | 06-Dec-2024 14:00 | 472886 | ||
| 46005_TS_DEWT_011999.nc | 06-Dec-2024 14:04 | 1113912 | ||
| 46005_TS_DEWT_012000.nc | 06-Dec-2024 14:06 | 1111331 | ||
| 46005_TS_DEWT_012001.nc | 06-Dec-2024 14:09 | 1112159 | ||
| 46005_TS_DEWT_012002.nc | 06-Dec-2024 14:11 | 4719074 | ||
| 46005_TS_DEWT_012003.nc | 06-Dec-2024 14:23 | 1264871 | ||
| 46005_TS_DEWT_012004.nc | 06-Dec-2024 14:26 | 1262694 | ||
| 46005_TS_DEWT_012007.nc | 06-Dec-2024 14:30 | 1265319 | ||
| 46005_TS_DEWT_012008.nc | 06-Dec-2024 14:32 | 1115388 | ||
| 46005_TS_DEWT_012012.nc | 06-Dec-2024 14:36 | 5332283 | ||
| 46005_TS_DEWT_012015.nc | 06-Dec-2024 14:38 | 1105742 | ||
| 46005_TS_DEWT_012016.nc | 06-Dec-2024 14:40 | 1109287 | ||
| 46005_TS_DEWT_012017.nc | 06-Dec-2024 14:42 | 1109860 | ||
| 46005_TS_DEWT_012018.nc | 06-Dec-2024 14:45 | 1107315 | ||
| 46005_TS_DEWT_012019.nc | 06-Dec-2024 15:00 | 2990991 | ||
| 46005_TS_DEWT_012020.nc | 06-Dec-2024 15:04 | 1112657 | ||
| 46005_TS_DEWT_012021.nc | 06-Dec-2024 15:15 | 1113708 | ||
| 46005_TS_DEWT_012022.nc | 06-Dec-2024 15:31 | 1258844 | ||
| 46005_TS_DEWT_012023.nc | 06-Dec-2024 15:46 | 1259861 | ||
| 46005_TS_DEWT_012024.nc | 06-Dec-2024 16:03 | 1115256 | ||
| 46005_TS_DEWT_021978.nc | 06-Dec-2024 13:15 | 1112564 | ||
| 46005_TS_DEWT_021979.nc | 06-Dec-2024 13:17 | 1260289 | ||
| 46005_TS_DEWT_021980.nc | 06-Dec-2024 13:19 | 1259053 | ||
| 46005_TS_DEWT_021981.nc | 06-Dec-2024 13:21 | 1260242 | ||
| 46005_TS_DEWT_021982.nc | 06-Dec-2024 13:22 | 3385874 | ||
| 46005_TS_DEWT_021983.nc | 06-Dec-2024 13:24 | 1109647 | ||
| 46005_TS_DEWT_021984.nc | 06-Dec-2024 13:26 | 1105512 | ||
| 46005_TS_DEWT_021985.nc | 06-Dec-2024 13:28 | 1106392 | ||
| 46005_TS_DEWT_021986.nc | 06-Dec-2024 13:29 | 1110102 | ||
| 46005_TS_DEWT_021987.nc | 06-Dec-2024 13:31 | 4607224 | ||
| 46005_TS_DEWT_021988.nc | 06-Dec-2024 13:33 | 1261969 | ||
| 46005_TS_DEWT_021989.nc | 06-Dec-2024 13:36 | 1114610 | ||
| 46005_TS_DEWT_021990.nc | 06-Dec-2024 13:38 | 1031246 | ||
| 46005_TS_DEWT_021991.nc | 06-Dec-2024 13:39 | 1259939 | ||
| 46005_TS_DEWT_021992.nc | 06-Dec-2024 13:41 | 5319967 | ||
| 46005_TS_DEWT_021993.nc | 06-Dec-2024 13:43 | 1030062 | ||
| 46005_TS_DEWT_021994.nc | 06-Dec-2024 13:44 | 1113101 | ||
| 46005_TS_DEWT_021995.nc | 06-Dec-2024 13:46 | 1111522 | ||
| 46005_TS_DEWT_021996.nc | 06-Dec-2024 13:49 | 1104820 | ||
| 46005_TS_DEWT_021997.nc | 06-Dec-2024 13:51 | 5838431 | ||
| 46005_TS_DEWT_021998.nc | 06-Dec-2024 14:02 | 5349693 | ||
| 46005_TS_DEWT_021999.nc | 06-Dec-2024 14:04 | 1113463 | ||
| 46005_TS_DEWT_022000.nc | 06-Dec-2024 14:07 | 1264624 | ||
| 46005_TS_DEWT_022001.nc | 06-Dec-2024 14:09 | 1265064 | ||
| 46005_TS_DEWT_022002.nc | 06-Dec-2024 14:11 | 1020736 | ||
| 46005_TS_DEWT_022003.nc | 06-Dec-2024 14:24 | 5462378 | ||
| 46005_TS_DEWT_022004.nc | 06-Dec-2024 14:26 | 5491674 | ||
| 46005_TS_DEWT_022007.nc | 06-Dec-2024 14:30 | 1477005 | ||
| 46005_TS_DEWT_022008.nc | 06-Dec-2024 14:32 | 1160777 | ||
| 46005_TS_DEWT_022012.nc | 06-Dec-2024 14:36 | 903409 | ||
| 46005_TS_DEWT_022015.nc | 06-Dec-2024 14:38 | 1466475 | ||
| 46005_TS_DEWT_022016.nc | 06-Dec-2024 14:41 | 996605 | ||
| 46005_TS_DEWT_022018.nc | 06-Dec-2024 14:45 | 1476458 | ||
| 46005_TS_DEWT_022019.nc | 06-Dec-2024 15:01 | 1627598 | ||
| 46005_TS_DEWT_022020.nc | 06-Dec-2024 15:04 | 1626640 | ||
| 46005_TS_DEWT_022021.nc | 06-Dec-2024 15:17 | 1626984 | ||
| 46005_TS_DEWT_022022.nc | 06-Dec-2024 15:33 | 1625789 | ||
| 46005_TS_DEWT_022023.nc | 06-Dec-2024 15:48 | 1477953 | ||
| 46005_TS_DEWT_031978.nc | 06-Dec-2024 13:15 | 1627711 | ||
| 46005_TS_DEWT_031979.nc | 06-Dec-2024 13:17 | 1627421 | ||
| 46005_TS_DEWT_031980.nc | 06-Dec-2024 13:19 | 1625993 | ||
| 46005_TS_DEWT_031981.nc | 06-Dec-2024 13:21 | 1627389 | ||
| 46005_TS_DEWT_031982.nc | 06-Dec-2024 13:23 | 1464994 | ||
| 46005_TS_DEWT_031983.nc | 06-Dec-2024 13:24 | 1627848 | ||
| 46005_TS_DEWT_031984.nc | 06-Dec-2024 13:26 | 1627758 | ||
| 46005_TS_DEWT_031985.nc | 06-Dec-2024 13:28 | 1466820 | ||
| 46005_TS_DEWT_031986.nc | 06-Dec-2024 13:30 | 902689 | ||
| 46005_TS_DEWT_031987.nc | 06-Dec-2024 13:32 | 1163434 | ||
| 46005_TS_DEWT_031988.nc | 06-Dec-2024 13:34 | 1153848 | ||
| 46005_TS_DEWT_031989.nc | 06-Dec-2024 13:36 | 1465541 | ||
| 46005_TS_DEWT_031990.nc | 06-Dec-2024 13:38 | 1470597 | ||
| 46005_TS_DEWT_031991.nc | 06-Dec-2024 13:39 | 1474384 | ||
| 46005_TS_DEWT_031992.nc | 06-Dec-2024 13:41 | 1470885 | ||
| 46005_TS_DEWT_031993.nc | 06-Dec-2024 13:43 | 1470503 | ||
| 46005_TS_DEWT_031994.nc | 06-Dec-2024 13:45 | 1469280 | ||
| 46005_TS_DEWT_031995.nc | 06-Dec-2024 13:47 | 1474341 | ||
| 46005_TS_DEWT_031996.nc | 06-Dec-2024 13:49 | 1470513 | ||
| 46005_TS_DEWT_031997.nc | 06-Dec-2024 13:51 | 1470847 | ||
| 46005_TS_DEWT_031998.nc | 06-Dec-2024 14:02 | 1470534 | ||
| 46005_TS_DEWT_031999.nc | 06-Dec-2024 14:05 | 1474102 | ||
| 46005_TS_DEWT_032000.nc | 06-Dec-2024 14:07 | 1150575 | ||
| 46005_TS_DEWT_032001.nc | 06-Dec-2024 14:09 | 1470781 | ||
| 46005_TS_DEWT_032002.nc | 06-Dec-2024 14:11 | 1470320 | ||
| 46005_TS_DEWT_032003.nc | 06-Dec-2024 14:25 | 1625839 | ||
| 46005_TS_DEWT_032004.nc | 06-Dec-2024 14:27 | 1470152 | ||
| 46005_TS_DEWT_032007.nc | 06-Dec-2024 14:30 | 1478332 | ||
| 46005_TS_DEWT_032008.nc | 06-Dec-2024 14:32 | 1627426 | ||
| 46005_TS_DEWT_032012.nc | 06-Dec-2024 14:36 | 1474082 | ||
| 46005_TS_DEWT_032015.nc | 06-Dec-2024 14:39 | 1625253 | ||
| 46005_TS_DEWT_032016.nc | 06-Dec-2024 14:41 | 1627664 | ||
| 46005_TS_DEWT_032018.nc | 06-Dec-2024 14:46 | 1627769 | ||
| 46005_TS_DEWT_032019.nc | 06-Dec-2024 15:02 | 1627601 | ||
| 46005_TS_DEWT_032020.nc | 06-Dec-2024 15:04 | 1475855 | ||
| 46005_TS_DEWT_032021.nc | 06-Dec-2024 15:19 | 1478334 | ||
| 46005_TS_DEWT_032022.nc | 06-Dec-2024 15:35 | 1626638 | ||
| 46005_TS_DEWT_032023.nc | 06-Dec-2024 15:50 | 1627793 | ||
| 46005_TS_DEWT_041978.nc | 06-Dec-2024 13:15 | 1627530 | ||
| 46005_TS_DEWT_041979.nc | 06-Dec-2024 13:17 | 1627695 | ||
| 46005_TS_DEWT_041980.nc | 06-Dec-2024 13:19 | 1160134 | ||
| 46005_TS_DEWT_041981.nc | 06-Dec-2024 13:21 | 1627345 | ||
| 46005_TS_DEWT_041982.nc | 06-Dec-2024 13:23 | 1627861 | ||
| 46005_TS_DEWT_041983.nc | 06-Dec-2024 13:25 | 1469320 | ||
| 46005_TS_DEWT_041984.nc | 06-Dec-2024 13:26 | 1474554 | ||
| 46005_TS_DEWT_041985.nc | 06-Dec-2024 13:28 | 1477183 | ||
| 46005_TS_DEWT_041986.nc | 06-Dec-2024 13:30 | 1473030 | ||
| 46005_TS_DEWT_041987.nc | 06-Dec-2024 13:32 | 1474872 | ||
| 46005_TS_DEWT_041988.nc | 06-Dec-2024 13:34 | 1477950 | ||
| 46005_TS_DEWT_041989.nc | 06-Dec-2024 13:36 | 607635 | ||
| 46005_TS_DEWT_041990.nc | 06-Dec-2024 13:38 | 1477883 | ||
| 46005_TS_DEWT_041991.nc | 06-Dec-2024 13:39 | 1477967 | ||
| 46005_TS_DEWT_041992.nc | 06-Dec-2024 13:41 | 1474178 | ||
| 46005_TS_DEWT_041994.nc | 06-Dec-2024 13:45 | 1477093 | ||
| 46005_TS_DEWT_041995.nc | 06-Dec-2024 13:47 | 1477686 | ||
| 46005_TS_DEWT_041996.nc | 06-Dec-2024 13:49 | 1475383 | ||
| 46005_TS_DEWT_041997.nc | 06-Dec-2024 13:51 | 1473694 | ||
| 46005_TS_DEWT_041998.nc | 06-Dec-2024 14:03 | 1477892 | ||
| 46005_TS_DEWT_041999.nc | 06-Dec-2024 14:05 | 1477808 | ||
| 46005_TS_DEWT_042000.nc | 06-Dec-2024 14:07 | 1477988 | ||
| 46005_TS_DEWT_042001.nc | 06-Dec-2024 14:09 | 1477214 | ||
| 46005_TS_DEWT_042002.nc | 06-Dec-2024 14:11 | 1478367 | ||
| 46005_TS_DEWT_042003.nc | 06-Dec-2024 14:25 | 1477156 | ||
| 46005_TS_DEWT_042004.nc | 06-Dec-2024 14:27 | 1478865 | ||
| 46005_TS_DEWT_042006.nc | 06-Dec-2024 14:28 | 1627405 | ||
| 46005_TS_DEWT_042007.nc | 06-Dec-2024 14:30 | 1627815 | ||
| 46005_TS_DEWT_042008.nc | 06-Dec-2024 14:32 | 1627780 | ||
| 46005_TS_DEWT_042012.nc | 06-Dec-2024 14:37 | 1627816 | ||
| 46005_TS_DEWT_042015.nc | 06-Dec-2024 14:39 | 1627021 | ||
| 46005_TS_DEWT_042016.nc | 06-Dec-2024 14:41 | 1627783 | ||
| 46005_TS_DEWT_042018.nc | 06-Dec-2024 14:46 | 1626185 | ||
| 46005_TS_DEWT_042019.nc | 06-Dec-2024 15:02 | 1627803 | ||
| 46005_TS_DEWT_042020.nc | 06-Dec-2024 15:04 | 1627779 | ||
| 46005_TS_DEWT_042021.nc | 06-Dec-2024 15:21 | 1627485 | ||
| 46005_TS_DEWT_042022.nc | 06-Dec-2024 15:36 | 1627698 | ||
| 46005_TS_DEWT_042023.nc | 06-Dec-2024 15:52 | 1627314 | ||
| 46005_TS_DEWT_051978.nc | 06-Dec-2024 13:15 | 1625330 | ||
| 46005_TS_DEWT_051979.nc | 06-Dec-2024 13:17 | 1627755 | ||
| 46005_TS_DEWT_051980.nc | 06-Dec-2024 13:19 | 1627867 | ||
| 46005_TS_DEWT_051981.nc | 06-Dec-2024 13:21 | 1475733 | ||
| 46005_TS_DEWT_051983.nc | 06-Dec-2024 13:25 | 1474913 | ||
| 46005_TS_DEWT_051984.nc | 06-Dec-2024 13:26 | 1477680 | ||
| 46005_TS_DEWT_051985.nc | 06-Dec-2024 13:29 | 1475720 | ||
| 46005_TS_DEWT_051986.nc | 06-Dec-2024 13:30 | 1476664 | ||
| 46005_TS_DEWT_051987.nc | 06-Dec-2024 13:32 | 1477909 | ||
| 46005_TS_DEWT_051988.nc | 06-Dec-2024 13:34 | 1477598 | ||
| 46005_TS_DEWT_051989.nc | 06-Dec-2024 13:36 | 1477917 | ||
| 46005_TS_DEWT_051990.nc | 06-Dec-2024 13:38 | 1477681 | ||
| 46005_TS_DEWT_051991.nc | 06-Dec-2024 13:39 | 1477939 | ||
| 46005_TS_DEWT_051992.nc | 06-Dec-2024 13:42 | 1477974 | ||
| 46005_TS_DEWT_051994.nc | 06-Dec-2024 13:45 | 1477844 | ||
| 46005_TS_DEWT_051995.nc | 06-Dec-2024 13:47 | 1477143 | ||
| 46005_TS_DEWT_051996.nc | 06-Dec-2024 13:49 | 1477847 | ||
| 46005_TS_DEWT_051997.nc | 06-Dec-2024 13:52 | 1477683 | ||
| 46005_TS_DEWT_051998.nc | 06-Dec-2024 14:03 | 1477948 | ||
| 46005_TS_DEWT_051999.nc | 06-Dec-2024 14:05 | 1476938 | ||
| 46005_TS_DEWT_052000.nc | 06-Dec-2024 14:07 | 1478847 | ||
| 46005_TS_DEWT_052001.nc | 06-Dec-2024 14:09 | 1625172 | ||
| 46005_TS_DEWT_052002.nc | 06-Dec-2024 14:11 | 1627624 | ||
| 46005_TS_DEWT_052003.nc | 06-Dec-2024 14:25 | 1627550 | ||
| 46005_TS_DEWT_052004.nc | 06-Dec-2024 14:27 | 1626708 | ||
| 46005_TS_DEWT_052006.nc | 06-Dec-2024 14:29 | 1627804 | ||
| 46005_TS_DEWT_052007.nc | 06-Dec-2024 14:30 | 1627462 | ||
| 46005_TS_DEWT_052008.nc | 06-Dec-2024 14:33 | 1627082 | ||
| 46005_TS_DEWT_052012.nc | 06-Dec-2024 14:37 | 1627604 | ||
| 46005_TS_DEWT_052015.nc | 06-Dec-2024 14:39 | 1626060 | ||
| 46005_TS_DEWT_052016.nc | 06-Dec-2024 14:41 | 1627477 | ||
| 46005_TS_DEWT_052017.nc | 06-Dec-2024 14:42 | 1626713 | ||
| 46005_TS_DEWT_052018.nc | 06-Dec-2024 14:46 | 1626574 | ||
| 46005_TS_DEWT_052019.nc | 06-Dec-2024 15:02 | 1626528 | ||
| 46005_TS_DEWT_052020.nc | 06-Dec-2024 15:04 | 1478038 | ||
| 46005_TS_DEWT_052021.nc | 06-Dec-2024 15:22 | 1627343 | ||
| 46005_TS_DEWT_052022.nc | 06-Dec-2024 15:38 | 1627773 | ||
| 46005_TS_DEWT_052023.nc | 06-Dec-2024 15:53 | 1627826 | ||
| 46005_TS_DEWT_061978.nc | 06-Dec-2024 13:15 | 1475465 | ||
| 46005_TS_DEWT_061979.nc | 06-Dec-2024 13:17 | 1474520 | ||
| 46005_TS_DEWT_061980.nc | 06-Dec-2024 13:19 | 1627568 | ||
| 46005_TS_DEWT_061981.nc | 06-Dec-2024 13:21 | 1627569 | ||
| 46005_TS_DEWT_061982.nc | 06-Dec-2024 13:23 | 1627515 | ||
| 46005_TS_DEWT_061983.nc | 06-Dec-2024 13:25 | 1460510 | ||
| 46005_TS_DEWT_061984.nc | 06-Dec-2024 13:27 | 1627756 | ||
| 46005_TS_DEWT_061985.nc | 06-Dec-2024 13:29 | 1627276 | ||
| 46005_TS_DEWT_061986.nc | 06-Dec-2024 13:30 | 1627817 | ||
| 46005_TS_DEWT_061987.nc | 06-Dec-2024 13:32 | 1627006 | ||
| 46005_TS_DEWT_061988.nc | 06-Dec-2024 13:34 | 1627863 | ||
| 46005_TS_DEWT_061989.nc | 06-Dec-2024 13:36 | 1627746 | ||
| 46005_TS_DEWT_061990.nc | 06-Dec-2024 13:38 | 1477699 | ||
| 46005_TS_DEWT_061991.nc | 06-Dec-2024 13:40 | 1626881 | ||
| 46005_TS_DEWT_061992.nc | 06-Dec-2024 13:42 | 1625739 | ||
| 46005_TS_DEWT_061994.nc | 06-Dec-2024 13:45 | 1627508 | ||
| 46005_TS_DEWT_061995.nc | 06-Dec-2024 13:47 | 1627865 | ||
| 46005_TS_DEWT_061996.nc | 06-Dec-2024 13:49 | 1459342 | ||
| 46005_TS_DEWT_061997.nc | 06-Dec-2024 13:52 | 1474930 | ||
| 46005_TS_DEWT_061998.nc | 06-Dec-2024 14:03 | 1476859 | ||
| 46005_TS_DEWT_061999.nc | 06-Dec-2024 14:05 | 1158243 | ||
| 46005_TS_DEWT_062000.nc | 06-Dec-2024 14:07 | 437319 | ||
| 46005_TS_DEWT_062001.nc | 06-Dec-2024 14:09 | 1472034 | ||
| 46005_TS_DEWT_062002.nc | 06-Dec-2024 14:12 | 1462152 | ||
| 46005_TS_DEWT_062003.nc | 06-Dec-2024 14:25 | 1477963 | ||
| 46005_TS_DEWT_062004.nc | 06-Dec-2024 14:27 | 1477933 | ||
| 46005_TS_DEWT_062006.nc | 06-Dec-2024 14:29 | 1477018 | ||
| 46005_TS_DEWT_062007.nc | 06-Dec-2024 14:31 | 1477887 | ||
| 46005_TS_DEWT_062008.nc | 06-Dec-2024 14:33 | 1477743 | ||
| 46005_TS_DEWT_062010.nc | 06-Dec-2024 14:34 | 1477964 | ||
| 46005_TS_DEWT_062011.nc | 06-Dec-2024 14:35 | 1477247 | ||
| 46005_TS_DEWT_062012.nc | 06-Dec-2024 14:37 | 1477221 | ||
| 46005_TS_DEWT_062015.nc | 06-Dec-2024 14:39 | 1477369 | ||
| 46005_TS_DEWT_062016.nc | 06-Dec-2024 14:41 | 1473494 | ||
| 46005_TS_DEWT_062017.nc | 06-Dec-2024 14:43 | 1477986 | ||
| 46005_TS_DEWT_062018.nc | 06-Dec-2024 14:48 | 1477809 | ||
| 46005_TS_DEWT_062019.nc | 06-Dec-2024 15:02 | 1476918 | ||
| 46005_TS_DEWT_062020.nc | 06-Dec-2024 15:05 | 1163743 | ||
| 46005_TS_DEWT_062021.nc | 06-Dec-2024 15:24 | 420998 | ||
| 46005_TS_DEWT_062022.nc | 06-Dec-2024 15:40 | 910790 | ||
| 46005_TS_DEWT_062023.nc | 06-Dec-2024 15:55 | 1476865 | ||
| 46005_TS_DEWT_071978.nc | 06-Dec-2024 13:15 | 1473629 | ||
| 46005_TS_DEWT_071979.nc | 06-Dec-2024 13:17 | 1627681 | ||
| 46005_TS_DEWT_071980.nc | 06-Dec-2024 13:19 | 1627828 | ||
| 46005_TS_DEWT_071981.nc | 06-Dec-2024 13:21 | 1626854 | ||
| 46005_TS_DEWT_071982.nc | 06-Dec-2024 13:23 | 1627786 | ||
| 46005_TS_DEWT_071983.nc | 06-Dec-2024 13:25 | 1627742 | ||
| 46005_TS_DEWT_071984.nc | 06-Dec-2024 13:27 | 1627809 | ||
| 46005_TS_DEWT_071985.nc | 06-Dec-2024 13:29 | 1627564 | ||
| 46005_TS_DEWT_071986.nc | 06-Dec-2024 13:30 | 1627435 | ||
| 46005_TS_DEWT_071987.nc | 06-Dec-2024 13:32 | 1625890 | ||
| 46005_TS_DEWT_071988.nc | 06-Dec-2024 13:34 | 1627557 | ||
| 46005_TS_DEWT_071989.nc | 06-Dec-2024 13:37 | 1627468 | ||
| 46005_TS_DEWT_071990.nc | 06-Dec-2024 13:38 | 1627849 | ||
| 46005_TS_DEWT_071991.nc | 06-Dec-2024 13:40 | 1471935 | ||
| 46005_TS_DEWT_071992.nc | 06-Dec-2024 13:42 | 1465844 | ||
| 46005_TS_DEWT_071993.nc | 06-Dec-2024 13:43 | 1156290 | ||
| 46005_TS_DEWT_071994.nc | 06-Dec-2024 13:45 | 1157611 | ||
| 46005_TS_DEWT_071995.nc | 06-Dec-2024 13:47 | 1474768 | ||
| 46005_TS_DEWT_071996.nc | 06-Dec-2024 13:50 | 1477104 | ||
| 46005_TS_DEWT_071997.nc | 06-Dec-2024 13:52 | 1477954 | ||
| 46005_TS_DEWT_071998.nc | 06-Dec-2024 14:03 | 1470080 | ||
| 46005_TS_DEWT_071999.nc | 06-Dec-2024 14:05 | 1476981 | ||
| 46005_TS_DEWT_072000.nc | 06-Dec-2024 14:08 | 1476535 | ||
| 46005_TS_DEWT_072001.nc | 06-Dec-2024 14:10 | 1477111 | ||
| 46005_TS_DEWT_072002.nc | 06-Dec-2024 14:13 | 1477306 | ||
| 46005_TS_DEWT_072003.nc | 06-Dec-2024 14:25 | 1477954 | ||
| 46005_TS_DEWT_072004.nc | 06-Dec-2024 14:27 | 1477699 | ||
| 46005_TS_DEWT_072006.nc | 06-Dec-2024 14:29 | 1477150 | ||
| 46005_TS_DEWT_072007.nc | 06-Dec-2024 14:31 | 1472790 | ||
| 46005_TS_DEWT_072008.nc | 06-Dec-2024 14:33 | 1477959 | ||
| 46005_TS_DEWT_072010.nc | 06-Dec-2024 14:34 | 1477985 | ||
| 46005_TS_DEWT_072011.nc | 06-Dec-2024 14:35 | 1477353 | ||
| 46005_TS_DEWT_072012.nc | 06-Dec-2024 14:37 | 1626848 | ||
| 46005_TS_DEWT_072014.nc | 06-Dec-2024 14:37 | 1625877 | ||
| 46005_TS_DEWT_072015.nc | 06-Dec-2024 14:39 | 1625926 | ||
| 46005_TS_DEWT_072016.nc | 06-Dec-2024 14:41 | 1149506 | ||
| 46005_TS_DEWT_072017.nc | 06-Dec-2024 14:43 | 1627741 | ||
| 46005_TS_DEWT_072018.nc | 06-Dec-2024 14:50 | 1627779 | ||
| 46005_TS_DEWT_072019.nc | 06-Dec-2024 15:03 | 1627640 | ||
| 46005_TS_DEWT_072020.nc | 06-Dec-2024 15:05 | 1627417 | ||
| 46005_TS_DEWT_072021.nc | 06-Dec-2024 15:25 | 1478679 | ||
| 46005_TS_DEWT_072022.nc | 06-Dec-2024 15:42 | 1478208 | ||
| 46005_TS_DEWT_072023.nc | 06-Dec-2024 15:57 | 1627679 | ||
| 46005_TS_DEWT_081978.nc | 06-Dec-2024 13:16 | 1627806 | ||
| 46005_TS_DEWT_081979.nc | 06-Dec-2024 13:17 | 1477938 | ||
| 46005_TS_DEWT_081980.nc | 06-Dec-2024 13:19 | 1627307 | ||
| 46005_TS_DEWT_081981.nc | 06-Dec-2024 13:21 | 1627765 | ||
| 46005_TS_DEWT_081982.nc | 06-Dec-2024 13:23 | 1627161 | ||
| 46005_TS_DEWT_081983.nc | 06-Dec-2024 13:25 | 1475746 | ||
| 46005_TS_DEWT_081984.nc | 06-Dec-2024 13:27 | 1688515 | ||
| 46005_TS_DEWT_081985.nc | 06-Dec-2024 13:29 | 1265039 | ||
| 46005_TS_DEWT_081986.nc | 06-Dec-2024 13:30 | 1120492 | ||
| 46005_TS_DEWT_081987.nc | 06-Dec-2024 13:32 | 1113367 | ||
| 46005_TS_DEWT_081988.nc | 06-Dec-2024 13:35 | 1263977 | ||
| 46005_TS_DEWT_081989.nc | 06-Dec-2024 13:37 | 1265558 | ||
| 46005_TS_DEWT_081990.nc | 06-Dec-2024 13:39 | 1263081 | ||
| 46005_TS_DEWT_081991.nc | 06-Dec-2024 13:40 | 1024459 | ||
| 46005_TS_DEWT_081992.nc | 06-Dec-2024 13:42 | 4581489 | ||
| 46005_TS_DEWT_081993.nc | 06-Dec-2024 13:43 | 3419580 | ||
| 46005_TS_DEWT_081994.nc | 06-Dec-2024 13:45 | 1025908 | ||
| 46005_TS_DEWT_081995.nc | 06-Dec-2024 13:48 | 998162 | ||
| 46005_TS_DEWT_081996.nc | 06-Dec-2024 13:50 | 1109221 | ||
| 46005_TS_DEWT_081997.nc | 06-Dec-2024 13:52 | 1029044 | ||
| 46005_TS_DEWT_081998.nc | 06-Dec-2024 14:03 | 1026035 | ||
| 46005_TS_DEWT_081999.nc | 06-Dec-2024 14:05 | 1027330 | ||
| 46005_TS_DEWT_082000.nc | 06-Dec-2024 14:08 | 423092 | ||
| 46005_TS_DEWT_082001.nc | 06-Dec-2024 14:10 | 3348648 | ||
| 46005_TS_DEWT_082002.nc | 06-Dec-2024 14:15 | 4772363 | ||
| 46005_TS_DEWT_082003.nc | 06-Dec-2024 14:25 | 1268503 | ||
| 46005_TS_DEWT_082004.nc | 06-Dec-2024 14:28 | 1014544 | ||
| 46005_TS_DEWT_082006.nc | 06-Dec-2024 14:29 | 1117774 | ||
| 46005_TS_DEWT_082007.nc | 06-Dec-2024 14:31 | 994851 | ||
| 46005_TS_DEWT_082008.nc | 06-Dec-2024 14:33 | 1266755 | ||
| 46005_TS_DEWT_082010.nc | 06-Dec-2024 14:34 | 1267216 | ||
| 46005_TS_DEWT_082011.nc | 06-Dec-2024 14:35 | 4193884 | ||
| 46005_TS_DEWT_082014.nc | 06-Dec-2024 14:37 | 3453725 | ||
| 46005_TS_DEWT_082015.nc | 06-Dec-2024 14:40 | 1115232 | ||
| 46005_TS_DEWT_082016.nc | 06-Dec-2024 14:42 | 1028032 | ||
| 46005_TS_DEWT_082017.nc | 06-Dec-2024 14:43 | 1112810 | ||
| 46005_TS_DEWT_082018.nc | 06-Dec-2024 14:52 | 1113396 | ||
| 46005_TS_DEWT_082019.nc | 06-Dec-2024 15:03 | 1114144 | ||
| 46005_TS_DEWT_082020.nc | 06-Dec-2024 15:07 | 1113037 | ||
| 46005_TS_DEWT_082021.nc | 06-Dec-2024 15:25 | 4630604 | ||
| 46005_TS_DEWT_082022.nc | 06-Dec-2024 15:43 | 1263781 | ||
| 46005_TS_DEWT_082023.nc | 06-Dec-2024 15:59 | 1262182 | ||
| 46005_TS_DEWT_091976.nc | 06-Dec-2024 13:13 | 1263826 | ||
| 46005_TS_DEWT_091978.nc | 06-Dec-2024 13:16 | 1260915 | ||
| 46005_TS_DEWT_091979.nc | 06-Dec-2024 13:18 | 1261217 | ||
| 46005_TS_DEWT_091980.nc | 06-Dec-2024 13:20 | 1260233 | ||
| 46005_TS_DEWT_091981.nc | 06-Dec-2024 13:22 | 5331064 | ||
| 46005_TS_DEWT_091982.nc | 06-Dec-2024 13:23 | 440950 | ||
| 46005_TS_DEWT_091983.nc | 06-Dec-2024 13:25 | 1109606 | ||
| 46005_TS_DEWT_091984.nc | 06-Dec-2024 13:27 | 1104560 | ||
| 46005_TS_DEWT_091985.nc | 06-Dec-2024 13:29 | 1110121 | ||
| 46005_TS_DEWT_091986.nc | 06-Dec-2024 13:30 | 1109235 | ||
| 46005_TS_DEWT_091987.nc | 06-Dec-2024 13:33 | 1107877 | ||
| 46005_TS_DEWT_091988.nc | 06-Dec-2024 13:35 | 3018077 | ||
| 46005_TS_DEWT_091989.nc | 06-Dec-2024 13:37 | 1259466 | ||
| 46005_TS_DEWT_091991.nc | 06-Dec-2024 13:40 | 1111540 | ||
| 46005_TS_DEWT_091992.nc | 06-Dec-2024 13:42 | 1110065 | ||
| 46005_TS_DEWT_091993.nc | 06-Dec-2024 13:44 | 1259086 | ||
| 46005_TS_DEWT_091994.nc | 06-Dec-2024 13:46 | 1261594 | ||
| 46005_TS_DEWT_091995.nc | 06-Dec-2024 13:48 | 1113757 | ||
| 46005_TS_DEWT_091996.nc | 06-Dec-2024 13:50 | 1261402 | ||
| 46005_TS_DEWT_091997.nc | 06-Dec-2024 13:54 | 1111778 | ||
| 46005_TS_DEWT_091998.nc | 06-Dec-2024 14:03 | 1260289 | ||
| 46005_TS_DEWT_091999.nc | 06-Dec-2024 14:05 | 1259073 | ||
| 46005_TS_DEWT_092000.nc | 06-Dec-2024 14:08 | 1262721 | ||
| 46005_TS_DEWT_092001.nc | 06-Dec-2024 14:10 | 3645772 | ||
| 46005_TS_DEWT_092002.nc | 06-Dec-2024 14:16 | 1110010 | ||
| 46005_TS_DEWT_092003.nc | 06-Dec-2024 14:26 | 1111029 | ||
| 46005_TS_DEWT_092004.nc | 06-Dec-2024 14:28 | 1106891 | ||
| 46005_TS_DEWT_092006.nc | 06-Dec-2024 14:29 | 1108475 | ||
| 46005_TS_DEWT_092007.nc | 06-Dec-2024 14:31 | 1109783 | ||
| 46005_TS_DEWT_092008.nc | 06-Dec-2024 14:33 | 4638662 | ||
| 46005_TS_DEWT_092010.nc | 06-Dec-2024 14:35 | 644739 | ||
| 46005_TS_DEWT_092011.nc | 06-Dec-2024 14:35 | 1262170 | ||
| 46005_TS_DEWT_092014.nc | 06-Dec-2024 14:38 | 1264755 | ||
| 46005_TS_DEWT_092015.nc | 06-Dec-2024 14:40 | 1113030 | ||
| 46005_TS_DEWT_092016.nc | 06-Dec-2024 14:42 | 1260989 | ||
| 46005_TS_DEWT_092017.nc | 06-Dec-2024 14:44 | 1261679 | ||
| 46005_TS_DEWT_092018.nc | 06-Dec-2024 14:53 | 5205515 | ||
| 46005_TS_DEWT_092019.nc | 06-Dec-2024 15:03 | 1007521 | ||
| 46005_TS_DEWT_092020.nc | 06-Dec-2024 15:09 | 1112395 | ||
| 46005_TS_DEWT_092021.nc | 06-Dec-2024 15:25 | 1033172 | ||
| 46005_TS_DEWT_092022.nc | 06-Dec-2024 15:43 | 1112400 | ||
| 46005_TS_DEWT_092024.nc | 10-Jan-2025 21:42 | 1112174 | ||
| 46005_TS_DEWT_101976.nc | 06-Dec-2024 13:13 | 1111954 | ||
| 46005_TS_DEWT_101977.nc | 06-Dec-2024 13:14 | 5764187 | ||
| 46005_TS_DEWT_101978.nc | 06-Dec-2024 13:16 | 5259299 | ||
| 46005_TS_DEWT_101979.nc | 06-Dec-2024 13:18 | 638636 | ||
| 46005_TS_DEWT_101980.nc | 06-Dec-2024 13:20 | 1017076 | ||
| 46005_TS_DEWT_101981.nc | 06-Dec-2024 13:22 | 1263779 | ||
| 46005_TS_DEWT_101982.nc | 06-Dec-2024 13:24 | 1115025 | ||
| 46005_TS_DEWT_101983.nc | 06-Dec-2024 13:25 | 1265742 | ||
| 46005_TS_DEWT_101984.nc | 06-Dec-2024 13:27 | 1265208 | ||
| 46005_TS_DEWT_101985.nc | 06-Dec-2024 13:29 | 1022095 | ||
| 46005_TS_DEWT_101986.nc | 06-Dec-2024 13:31 | 5476833 | ||
| 46005_TS_DEWT_101987.nc | 06-Dec-2024 13:33 | 5645225 | ||
| 46005_TS_DEWT_101988.nc | 06-Dec-2024 13:35 | 1625558 | ||
| 46005_TS_DEWT_101989.nc | 06-Dec-2024 13:37 | 1475651 | ||
| 46005_TS_DEWT_101991.nc | 06-Dec-2024 13:40 | 1477243 | ||
| 46005_TS_DEWT_101992.nc | 06-Dec-2024 13:42 | 429907 | ||
| 46005_TS_DEWT_101993.nc | 06-Dec-2024 13:44 | 1473061 | ||
| 46005_TS_DEWT_101994.nc | 06-Dec-2024 13:46 | 1468628 | ||
| 46005_TS_DEWT_101995.nc | 06-Dec-2024 13:48 | 1469997 | ||
| 46005_TS_DEWT_101996.nc | 06-Dec-2024 13:50 | 428417 | ||
| 46005_TS_DEWT_101997.nc | 06-Dec-2024 13:55 | 1469714 | ||
| 46005_TS_DEWT_101998.nc | 06-Dec-2024 14:04 | 1150104 | ||
| 46005_TS_DEWT_101999.nc | 06-Dec-2024 14:06 | 1472672 | ||
| 46005_TS_DEWT_102000.nc | 06-Dec-2024 14:08 | 429915 | ||
| 46005_TS_DEWT_102001.nc | 06-Dec-2024 14:10 | 1467944 | ||
| 46005_TS_DEWT_102002.nc | 06-Dec-2024 14:18 | 1460934 | ||
| 46005_TS_DEWT_102003.nc | 06-Dec-2024 14:26 | 1471110 | ||
| 46005_TS_DEWT_102004.nc | 06-Dec-2024 14:28 | 429568 | ||
| 46005_TS_DEWT_102006.nc | 06-Dec-2024 14:29 | 1474123 | ||
| 46005_TS_DEWT_102007.nc | 06-Dec-2024 14:31 | 1464388 | ||
| 46005_TS_DEWT_102008.nc | 06-Dec-2024 14:34 | 1470779 | ||
| 46005_TS_DEWT_102010.nc | 06-Dec-2024 14:35 | 429907 | ||
| 46005_TS_DEWT_102011.nc | 06-Dec-2024 14:36 | 1459704 | ||
| 46005_TS_DEWT_102014.nc | 06-Dec-2024 14:38 | 1461559 | ||
| 46005_TS_DEWT_102015.nc | 06-Dec-2024 14:40 | 1472552 | ||
| 46005_TS_DEWT_102016.nc | 06-Dec-2024 14:42 | 429569 | ||
| 46005_TS_DEWT_102017.nc | 06-Dec-2024 14:44 | 1471660 | ||
| 46005_TS_DEWT_102018.nc | 06-Dec-2024 14:55 | 1462012 | ||
| 46005_TS_DEWT_102019.nc | 06-Dec-2024 15:03 | 1476346 | ||
| 46005_TS_DEWT_102020.nc | 06-Dec-2024 15:10 | 429639 | ||
| 46005_TS_DEWT_102021.nc | 06-Dec-2024 15:26 | 1476025 | ||
| 46005_TS_DEWT_102022.nc | 06-Dec-2024 15:44 | 1467753 | ||
| 46005_TS_DEWT_102024.nc | 12-Jan-2025 20:26 | 1476497 | ||
| 46005_TS_DEWT_111976.nc | 06-Dec-2024 13:13 | 598609 | ||
| 46005_TS_DEWT_111977.nc | 06-Dec-2024 13:14 | 1468759 | ||
| 46005_TS_DEWT_111978.nc | 06-Dec-2024 13:16 | 1462433 | ||
| 46005_TS_DEWT_111979.nc | 06-Dec-2024 13:18 | 995814 | ||
| 46005_TS_DEWT_111980.nc | 06-Dec-2024 13:20 | 1156288 | ||
| 46005_TS_DEWT_111981.nc | 06-Dec-2024 13:22 | 1469537 | ||
| 46005_TS_DEWT_111982.nc | 06-Dec-2024 13:24 | 1159284 | ||
| 46005_TS_DEWT_111983.nc | 06-Dec-2024 13:26 | 429914 | ||
| 46005_TS_DEWT_111984.nc | 06-Dec-2024 13:28 | 1143889 | ||
| 46005_TS_DEWT_111986.nc | 06-Dec-2024 13:31 | 1473750 | ||
| 46005_TS_DEWT_111987.nc | 06-Dec-2024 13:33 | 1472289 | ||
| 46005_TS_DEWT_111988.nc | 06-Dec-2024 13:35 | 1458820 | ||
| 46005_TS_DEWT_111989.nc | 06-Dec-2024 13:37 | 429571 | ||
| 46005_TS_DEWT_111991.nc | 06-Dec-2024 13:40 | 1463881 | ||
| 46005_TS_DEWT_111992.nc | 06-Dec-2024 13:43 | 1626131 | ||
| 46005_TS_DEWT_111993.nc | 06-Dec-2024 13:44 | 1626494 | ||
| 46005_TS_DEWT_111994.nc | 06-Dec-2024 13:46 | 1626964 | ||
| 46005_TS_DEWT_111995.nc | 06-Dec-2024 13:48 | 429752 | ||
| 46005_TS_DEWT_111996.nc | 06-Dec-2024 13:50 | 917122 | ||
| 46005_TS_DEWT_111997.nc | 06-Dec-2024 13:57 | 1152368 | ||
| 46005_TS_DEWT_111998.nc | 06-Dec-2024 14:04 | 994951 | ||
| 46005_TS_DEWT_111999.nc | 06-Dec-2024 14:06 | 1626609 | ||
| 46005_TS_DEWT_112000.nc | 06-Dec-2024 14:08 | 1625600 | ||
| 46005_TS_DEWT_112001.nc | 06-Dec-2024 14:10 | 1624987 | ||
| 46005_TS_DEWT_112002.nc | 06-Dec-2024 14:20 | 1626587 | ||
| 46005_TS_DEWT_112003.nc | 06-Dec-2024 14:26 | 1626729 | ||
| 46005_TS_DEWT_112004.nc | 06-Dec-2024 14:28 | 1626572 | ||
| 46005_TS_DEWT_112006.nc | 06-Dec-2024 14:30 | 1626463 | ||
| 46005_TS_DEWT_112007.nc | 06-Dec-2024 14:32 | 1625219 | ||
| 46005_TS_DEWT_112008.nc | 06-Dec-2024 14:34 | 1626294 | ||
| 46005_TS_DEWT_112010.nc | 06-Dec-2024 14:35 | 1464280 | ||
| 46005_TS_DEWT_112011.nc | 06-Dec-2024 14:36 | 1626490 | ||
| 46005_TS_DEWT_112014.nc | 06-Dec-2024 14:38 | 1626824 | ||
| 46005_TS_DEWT_112015.nc | 06-Dec-2024 14:40 | 1160715 | ||
| 46005_TS_DEWT_112016.nc | 06-Dec-2024 14:42 | 1473401 | ||
| 46005_TS_DEWT_112017.nc | 06-Dec-2024 14:44 | 1469931 | ||
| 46005_TS_DEWT_112018.nc | 06-Dec-2024 14:57 | 1469172 | ||
| 46005_TS_DEWT_112019.nc | 06-Dec-2024 15:03 | 1469601 | ||
| 46005_TS_DEWT_112020.nc | 06-Dec-2024 15:12 | 1473280 | ||
| 46005_TS_DEWT_112021.nc | 06-Dec-2024 15:27 | 1469204 | ||
| 46005_TS_DEWT_112022.nc | 06-Dec-2024 15:44 | 1469868 | ||
| 46005_TS_DEWT_112023.nc | 06-Dec-2024 16:00 | 1469416 | ||
| 46005_TS_DEWT_112024.nc | 20-Jan-2025 09:34 | 1473011 | ||
| 46005_TS_DEWT_121976.nc | 06-Dec-2024 13:14 | 1149738 | ||
| 46005_TS_DEWT_121977.nc | 06-Dec-2024 13:14 | 1469641 | ||
| 46005_TS_DEWT_121978.nc | 06-Dec-2024 13:16 | 1469285 | ||
| 46005_TS_DEWT_121979.nc | 06-Dec-2024 13:18 | 1476909 | ||
| 46005_TS_DEWT_121980.nc | 06-Dec-2024 13:20 | 1158605 | ||
| 46005_TS_DEWT_121981.nc | 06-Dec-2024 13:22 | 1458825 | ||
| 46005_TS_DEWT_121982.nc | 06-Dec-2024 13:24 | 1626837 | ||
| 46005_TS_DEWT_121983.nc | 06-Dec-2024 13:26 | 1626699 | ||
| 46005_TS_DEWT_121984.nc | 06-Dec-2024 13:28 | 1161682 | ||
| 46005_TS_DEWT_121986.nc | 06-Dec-2024 13:31 | 1625504 | ||
| 46005_TS_DEWT_121987.nc | 06-Dec-2024 13:33 | 1625335 | ||
| 46005_TS_DEWT_121988.nc | 06-Dec-2024 13:35 | 1626504 | ||
| 46005_TS_DEWT_121989.nc | 06-Dec-2024 13:37 | 1626781 | ||
| 46005_TS_DEWT_121991.nc | 06-Dec-2024 13:41 | 1626572 | ||
| 46005_TS_DEWT_121992.nc | 06-Dec-2024 13:43 | 1626677 | ||
| 46005_TS_DEWT_121993.nc | 06-Dec-2024 13:44 | 1159047 | ||
| 46005_TS_DEWT_121994.nc | 06-Dec-2024 13:46 | 1626299 | ||
| 46005_TS_DEWT_121995.nc | 06-Dec-2024 13:48 | 1626834 | ||
| 46005_TS_DEWT_121996.nc | 06-Dec-2024 13:51 | 1466754 | ||
| 46005_TS_DEWT_121997.nc | 06-Dec-2024 13:58 | 1470966 | ||
| 46005_TS_DEWT_121998.nc | 06-Dec-2024 14:04 | 1475185 | ||
| 46005_TS_DEWT_121999.nc | 06-Dec-2024 14:06 | 1476963 | ||
| 46005_TS_DEWT_122000.nc | 06-Dec-2024 14:08 | 1476925 | ||
| 46005_TS_DEWT_122001.nc | 06-Dec-2024 14:10 | 1475509 | ||
| 46005_TS_DEWT_122002.nc | 06-Dec-2024 14:21 | 1472573 | ||
| 46005_TS_DEWT_122003.nc | 06-Dec-2024 14:26 | 1474435 | ||
| 46005_TS_DEWT_122004.nc | 06-Dec-2024 14:28 | 1472767 | ||
| 46005_TS_DEWT_122006.nc | 06-Dec-2024 14:30 | 1472529 | ||
| 46005_TS_DEWT_122007.nc | 06-Dec-2024 14:32 | 1470503 | ||
| 46005_TS_DEWT_122008.nc | 06-Dec-2024 14:34 | 1476947 | ||
| 46005_TS_DEWT_122011.nc | 06-Dec-2024 14:36 | 1476632 | ||
| 46005_TS_DEWT_122014.nc | 06-Dec-2024 14:38 | 1476799 | ||
| 46005_TS_DEWT_122015.nc | 06-Dec-2024 14:40 | 1476229 | ||
| 46005_TS_DEWT_122016.nc | 06-Dec-2024 14:42 | 1462184 | ||
| 46005_TS_DEWT_122017.nc | 06-Dec-2024 14:45 | 1473127 | ||
| 46005_TS_DEWT_122018.nc | 06-Dec-2024 14:58 | 1475684 | ||
| 46005_TS_DEWT_122019.nc | 06-Dec-2024 15:04 | 1474676 | ||
| 46005_TS_DEWT_122020.nc | 06-Dec-2024 15:14 | 1626057 | ||
| 46005_TS_DEWT_122021.nc | 06-Dec-2024 15:29 | 1464333 | ||
| 46005_TS_DEWT_122022.nc | 06-Dec-2024 15:44 | 1626635 | ||
| 46005_TS_DEWT_122023.nc | 06-Dec-2024 16:02 | 1625043 | ||